Home   Weather   Lowell   Past weeks

Flag for USA Past Weather in Lowell, Massachusetts, USA — Yesterday and Last 2 Weeks

Now
48 °F

Clear.


Feels Like: 47 °F
Forecast: 50 / 59 °F
Wind: 3 mph from Northeast

Location: Hanscom Field

Current Time: Sep 29, 2016 at 11:22:28 PM

Latest Report: Sep 29, 2016 at 10:56 PM


Visibility: 10 mi

Pressure: 30.54 "Hg

Humidity: 86%

Dew Point: 44 °F

Location of LowellLocation

Past Weather in Lowell — Graph

°F

Lowell Temperature Yesterday

Maximum temperature yesterday: 59 °F (at 12:56 AM)
Minimum temperature yesterday: 55 °F (at 2:56 PM)
Average temperature yesterday: 57 °F

High & Low Weather Summary for the Past Weeks

 TemperatureHumidityPressure
High83 °F (Sep 22, 12:56 PM)97% (Sep 19, 1:56 PM)30.54 "Hg (Sep 19, 1:56 PM)
Low34 °F (Sep 26, 5:56 AM)26% (Sep 25, 2:56 PM)29.91 "Hg (Sep 27, 1:56 PM)
Average62 °F69%30.17 "Hg
* Reported Sep 14 9:56 PM — Sep 29 9:56 PM, Lowell, Weather by CustomWeather, © 2016

Note: Actual official high and low records may vary slightly from our data, if they occured in-between our weather recording intervals... More about our weather records

Advertising

Lowell Weather History for the Previous 24 Hours

Scroll right to see more
 ConditionsComfort  
Time TempWeatherWind HumidityBarometerVisibility
9:56 PM
Thu, Sep 29
50 °FPassing clouds.6 mph83%30.54 "Hg10 mi
8:56 PM50 °FPassing clouds.6 mph83%30.53 "Hg10 mi
7:56 PM51 °FPassing clouds.6 mph80%30.52 "Hg10 mi
6:56 PM54 °FPartly cloudy.8 mph74%30.52 "Hg10 mi
6:03 PM55 °FBroken clouds.9 mph69%30.48 "Hg10 mi
5:56 PM56 °FPartly sunny.12 mph67%30.52 "Hg10 mi
4:56 PM59 °FPartly sunny.8 mph62%30.51 "Hg10 mi
3:56 PM59 °FPartly sunny.13 mph62%30.51 "Hg10 mi
2:56 PM59 °FPartly sunny.16 mph62%30.51 "Hg10 mi
1:56 PM59 °FPartly sunny.16 mph60%30.52 "Hg10 mi
12:56 PM58 °FPartly sunny.16 mph65%30.53 "Hg10 mi
11:56 AM56 °FOvercast.13 mph67%30.53 "Hg10 mi
10:56 AM55 °FOvercast.10 mph69%30.52 "Hg10 mi
9:56 AM54 °FOvercast.14 mph69%30.52 "Hg10 mi
8:56 AM53 °FMostly cloudy.13 mph72%30.50 "Hg10 mi
7:56 AM53 °FSunny.8 mph74%30.48 "Hg10 mi
6:56 AM52 °FOvercast.9 mph80%30.46 "Hg10 mi
5:56 AM55 °FMostly cloudy.10 mph72%30.43 "Hg10 mi
4:56 AM56 °FOvercast.13 mph70%30.42 "Hg10 mi
4:03 AM56 °FPassing clouds.13 mph70%30.37 "Hg10 mi
3:56 AM57 °FOvercast.12 mph67%30.40 "Hg10 mi
2:56 AM57 °FOvercast.13 mph69%30.39 "Hg10 mi
1:56 AM57 °FOvercast.14 mph67%30.38 "Hg10 mi
12:56 AM57 °FOvercast.14 mph69%30.39 "Hg10 mi
11:56 PM
Wed, Sep 28
58 °FOvercast.13 mph65%30.39 "Hg10 mi
Weather by CustomWeather, © 2016

See weather overviewHow to use our weather pages